Weather in Bokovo-Platove

Ukraine / Luhansk Region     48°06′51″N   39°01′36″E
temp.,
°C
wind,
m/s
gust,
m/s
humid.,
%
clouds,
%
prec.,
mm/h
press.,
hPa
HPBL,
m
16 may, sun
sun1600:00+17nnw226740 0.0 101311
03:00+16nne226445 0.0 101220
06:00+17nne34735 0.0 101283
09:00+23ene566297 0.1 1011490
12:00+27ene5556100 0.0 10101266
15:00+27ese6746100 0.0 10091422
18:00+24e51055100 0.0 1007445
21:00+20ene514602 0.0 1006272
17 may, mon
mon1700:00+20ese716424 0.0 1006417
03:00+18ese615474 0.0 1005363
06:00+16ese61455100 0.0 1005343
09:00+20se79535 0.0 1006513
12:00+24sse575299 0.0 10071027
15:00+25s4452100 0.0 10071092
18:00+22ssw246999 0.0 1007326
21:00+17s2285100 0.1 100826
18 may, tue
tue1800:00+16sw41090100 0.4 1009412
03:00+15s3695100 0.4 1009254
06:00+15sw3695100 0.1 1009332
09:00+16wsw2286100 0.2 1009366
12:00+18ssw3476100 0.0 1009656
15:00+21ssw5662100 0.2 10091473
18:00+19ssw5766100 0.1 10091098
21:00+14s369198 0.1 1010128
19 may, wed
wed1900:00+13s39941 0.0 1009219
03:00+12s39958 0.0 1009202
06:00+13sse269651 0.0 1009219
09:00+17ssw797681 0.4 10091058
12:00+19ssw795829 0.8 10091690
15:00+19ssw9115547 1.0 10101807
18:00+16ssw8117718 0.3 10101045
21:00+13ssw6128825 0.3 1011585
20 may, thu
thu2000:00+13sw6108439 0.0 1011622
03:00+12sw6118896 0.4 1013792
06:00+11sw5139215 0.1 1014598
09:00+17wsw812631 0.1 10151242
12:00+21wsw794735 0.0 10152003
15:00+22w57405 0.0 10152323
18:00+21sw465449 0.0 1016436
21:00+15ssw22815 0.0 101712